When you browse on this site, cookies collect data to enhance your experience and personalize the content and advertising you see.
Visit our Privacy Policy to learn more. By continuing to use the site, you agree to this use of cookies and data.
  • In Czech Republic
  • List of Countries
  • For 7 days
  • Water Temperature
  • Weather Map
  • Weather Widgets
  • user-avatar
    Login

    Hourly Weather Sederot

    Today, 1 April, Wednesday

    Time Temperature Precipitation Wind Pressure Humidity
    00:00 +17°C° 0 mm 3 mps 748 mmHg 77%
    01:00 +17°C° 0 mm 4 mps 748 mmHg 77%
    02:00 +16°C° 0 mm 5 mps 747 mmHg 77%
    03:00 +15°C° 0 mm 6 mps 747 mmHg 76%
    04:00 +15°C° 0 mm 7 mps 747 mmHg 75%
    05:00 +15°C° 0 mm 7 mps 748 mmHg 74%
    06:00 +16°C° 0.1 mm 8 mps 748 mmHg 74%
    07:00 +16°C° 0.1 mm 8 mps 748 mmHg 75%
    08:00 +16°C° 0.1 mm 9 mps 748 mmHg 75%
    09:00 +17°C° 0.2 mm 8 mps 749 mmHg 73%
    10:00 +18°C° 0.2 mm 8 mps 749 mmHg 70%
    11:00 +18°C° 0.2 mm 8 mps 749 mmHg 68%
    12:00 +18°C° 0.1 mm 8 mps 749 mmHg 68%
    13:00 +18°C° 0.1 mm 8 mps 749 mmHg 67%
    14:00 +20°C° 0.1 mm 8 mps 749 mmHg 66%
    15:00 +18°C° 0.1 mm 7 mps 749 mmHg 69%
    16:00 +19°C° 0.1 mm 6 mps 749 mmHg 72%
    17:00 +17°C° 0.1 mm 5 mps 749 mmHg 75%
    18:00 +17°C° 0 mm 4 mps 750 mmHg 79%
    19:00 +17°C° 0 mm 3 mps 750 mmHg 83%
    20:00 +16°C° 0 mm 1 mps 750 mmHg 87%
    21:00 +16°C° 0 mm 1 mps 751 mmHg 87%
    22:00 +15°C° 0 mm 1 mps 751 mmHg 88%
    23:00 +15°C° 0 mm 1 mps 751 mmHg 89%

    Tomorrow, 2 April, Thursday

    Time Temperature Precipitation Wind Pressure Humidity
    00:00 +15°C° 0 mm 1 mps 750 mmHg 89%
    01:00 +15°C° 0 mm 2 mps 750 mmHg 90%
    02:00 +15°C° 0 mm 2 mps 750 mmHg 90%
    03:00 +14°C° 0 mm 1 mps 750 mmHg 90%
    04:00 +14°C° 0 mm 1 mps 750 mmHg 91%
    05:00 +14°C° 0 mm 1 mps 750 mmHg 92%
    06:00 +15°C° 0 mm 1 mps 751 mmHg 86%
    07:00 +16°C° 0 mm 1 mps 751 mmHg 81%
    08:00 +18°C° 0 mm 1 mps 751 mmHg 75%
    09:00 +18°C° 0 mm 2 mps 751 mmHg 68%
    10:00 +19°C° 0 mm 2 mps 751 mmHg 60%
    11:00 +20°C° 0 mm 2 mps 751 mmHg 53%
    12:00 +20°C° 0 mm 3 mps 751 mmHg 52%
    13:00 +21°C° 0 mm 4 mps 751 mmHg 51%
    14:00 +21°C° 0 mm 4 mps 750 mmHg 50%
    15:00 +20°C° 0 mm 4 mps 750 mmHg 54%
    16:00 +19°C° 0 mm 4 mps 750 mmHg 59%
    17:00 +18°C° 0 mm 4 mps 750 mmHg 63%
    18:00 +18°C° 0 mm 4 mps 751 mmHg 67%
    19:00 +17°C° 0 mm 3 mps 751 mmHg 71%
    20:00 +16°C° 0 mm 2 mps 751 mmHg 75%
    21:00 +16°C° 0 mm 2 mps 751 mmHg 76%
    22:00 +15°C° 0 mm 1 mps 752 mmHg 76%
    23:00 +14°C° 0 mm 0 mps 752 mmHg 77%

    Day after tomorrow, 3 April, Friday

    Time Temperature Precipitation Wind Pressure Humidity
    00:00 +14°C° 0 mm 0 mps 752 mmHg 77%
    01:00 +13°C° 0 mm 0 mps 751 mmHg 78%
    02:00 +13°C° 0 mm 0 mps 751 mmHg 78%
    03:00 +13°C° 0 mm 0 mps 751 mmHg 77%
    04:00 +14°C° 0 mm 1 mps 751 mmHg 75%
    05:00 +14°C° 0 mm 1 mps 751 mmHg 74%
    06:00 +15°C° 0 mm 2 mps 752 mmHg 64%
    07:00 +17°C° 0 mm 2 mps 752 mmHg 54%
    08:00 +19°C° 0 mm 3 mps 752 mmHg 44%
    09:00 +20°C° 0 mm 3 mps 752 mmHg 40%
    10:00 +23°C° 0 mm 2 mps 752 mmHg 36%
    11:00 +24°C° 0 mm 2 mps 752 mmHg 32%
    12:00 +24°C° 0 mm 2 mps 752 mmHg 32%
    13:00 +25°C° 0 mm 3 mps 752 mmHg 33%
    14:00 +25°C° 0 mm 3 mps 751 mmHg 33%
    15:00 +24°C° 0 mm 3 mps 751 mmHg 35%
    16:00 +24°C° 0 mm 2 mps 751 mmHg 38%
    17:00 +23°C° 0 mm 2 mps 751 mmHg 40%
    18:00 +21°C° 0 mm 3 mps 752 mmHg 44%
    19:00 +19°C° 0 mm 3 mps 752 mmHg 49%
    20:00 +18°C° 0 mm 4 mps 752 mmHg 53%
    21:00 +18°C° 0 mm 3 mps 753 mmHg 51%
    22:00 +18°C° 0 mm 3 mps 753 mmHg 50%
    23:00 +18°C° 0 mm 3 mps 753 mmHg 48%

    4 April, Saturday

    Time Temperature Precipitation Wind Pressure Humidity
    00:00 +18°C° 0 mm 3 mps 753 mmHg 46%
    01:00 +19°C° 0 mm 3 mps 752 mmHg 43%
    02:00 +19°C° 0 mm 3 mps 752 mmHg 41%
    03:00 +19°C° 0 mm 3 mps 752 mmHg 42%
    04:00 +19°C° 0 mm 3 mps 752 mmHg 43%
    05:00 +18°C° 0 mm 3 mps 752 mmHg 44%
    06:00 +20°C° 0 mm 3 mps 752 mmHg 42%
    07:00 +22°C° 0 mm 3 mps 752 mmHg 40%
    08:00 +24°C° 0 mm 3 mps 752 mmHg 38%
    09:00 +26°C° 0 mm 3 mps 752 mmHg 34%
    10:00 +28°C° 0 mm 3 mps 752 mmHg 30%
    11:00 +30°C° 0 mm 4 mps 752 mmHg 26%
    12:00 +30°C° 0 mm 4 mps 752 mmHg 24%
    13:00 +32°C° 0 mm 4 mps 751 mmHg 23%
    14:00 +32°C° 0 mm 4 mps 751 mmHg 22%
    15:00 +31°C° 0 mm 3 mps 750 mmHg 25%
    16:00 +30°C° 0 mm 3 mps 750 mmHg 28%
    17:00 +29°C° 0 mm 3 mps 750 mmHg 31%
    18:00 +28°C° 0 mm 3 mps 750 mmHg 31%
    19:00 +27°C° 0 mm 3 mps 751 mmHg 31%
    20:00 +26°C° 0 mm 3 mps 751 mmHg 30%
    21:00 +26°C° 0 mm 4 mps 751 mmHg 31%
    22:00 +25°C° 0 mm 5 mps 751 mmHg 31%
    23:00 +25°C° 0 mm 5 mps 751 mmHg 31%

    5 April, Sunday

    Time Temperature Precipitation Wind Pressure Humidity
    00:00 +24°C° 0 mm 6 mps 750 mmHg 30%
    01:00 +24°C° 0 mm 7 mps 750 mmHg 29%
    02:00 +26°C° 0 mm 7 mps 749 mmHg 28%
    03:00 +24°C° 0 mm 7 mps 749 mmHg 27%
    04:00 +24°C° 0 mm 8 mps 749 mmHg 27%
    05:00 +24°C° 0 mm 8 mps 749 mmHg 27%
    06:00 +26°C° 0 mm 8 mps 749 mmHg 27%
    07:00 +27°C° 0 mm 9 mps 749 mmHg 26%
    08:00 +28°C° 0 mm 9 mps 749 mmHg 26%
    09:00 +29°C° 0 mm 9 mps 749 mmHg 24%
    10:00 +32°C° 0 mm 9 mps 749 mmHg 21%
    11:00 +33°C° 0 mm 9 mps 748 mmHg 19%
    12:00 +34°C° 0 mm 9 mps 748 mmHg 18%
    13:00 +35°C° 0 mm 8 mps 747 mmHg 17%
    14:00 +37°C° 0 mm 8 mps 747 mmHg 16%
    15:00 +35°C° 0 mm 7 mps 746 mmHg 17%
    16:00 +34°C° 0 mm 7 mps 746 mmHg 18%
    17:00 +34°C° 0 mm 6 mps 745 mmHg 19%
    18:00 +33°C° 0 mm 7 mps 746 mmHg 18%
    19:00 +33°C° 0 mm 8 mps 746 mmHg 17%
    20:00 +32°C° 0 mm 8 mps 746 mmHg 17%
    21:00 +29°C° 0 mm 6 mps 746 mmHg 26%
    22:00 +27°C° 0 mm 4 mps 747 mmHg 36%
    23:00 +24°C° 0 mm 2 mps 747 mmHg 45%

    6 April, Monday

    Time Temperature Precipitation Wind Pressure Humidity
    00:00 +24°C° 0 mm 2 mps 747 mmHg 49%
    01:00 +23°C° 0 mm 1 mps 747 mmHg 53%
    02:00 +22°C° 0 mm 1 mps 747 mmHg 57%
    03:00 +21°C° 0 mm 1 mps 748 mmHg 61%
    04:00 +20°C° 0 mm 2 mps 748 mmHg 64%
    05:00 +19°C° 0 mm 2 mps 748 mmHg 67%
    06:00 +20°C° 0 mm 2 mps 749 mmHg 66%
    07:00 +20°C° 0 mm 2 mps 749 mmHg 66%
    08:00 +21°C° 0 mm 3 mps 749 mmHg 66%
    09:00 +21°C° 0 mm 3 mps 750 mmHg 65%
    10:00 +22°C° 0 mm 4 mps 750 mmHg 64%
    11:00 +22°C° 0 mm 5 mps 750 mmHg 64%
    12:00 +22°C° 0 mm 5 mps 750 mmHg 64%
    13:00 +22°C° 0 mm 5 mps 750 mmHg 63%
    14:00 +22°C° 0 mm 5 mps 749 mmHg 63%
    15:00 +21°C° 0 mm 5 mps 749 mmHg 67%
    16:00 +20°C° 0 mm 5 mps 749 mmHg 71%
    17:00 +19°C° 0 mm 5 mps 749 mmHg 75%
    18:00 +19°C° 0 mm 4 mps 750 mmHg 78%
    19:00 +18°C° 0 mm 3 mps 750 mmHg 81%
    20:00 +18°C° 0 mm 2 mps 751 mmHg 84%
    21:00 +17°C° 0 mm 2 mps 751 mmHg 85%
    22:00 +17°C° 0 mm 2 mps 751 mmHg 86%
    23:00 +17°C° 0 mm 2 mps 751 mmHg 87%
    Show more